This demonstration page uses our WeatherBlox Daily Observations layout. Learn more.

Left ArrowRight Arrow

47.50024, -111.30081

Hourly Observations for November 30, 2015

Temp ( °F °C ) Dew Point ( °F °C ) Humidity (%) Winds ( mph kmh ) Pressure ( in mb ) Visibility ( mi km ) Precip ( " mm )
12:53 am 00:53 Clear 11 -11.7 6 -14.4 81 81 SW 14 22 30.19 1022 10 16 0.00 0.00
1:53 am 01:53 Clear 14 -10 6 -14.4 71 71 SSW 13 20 30.17 1022 10 16 0.00 0.00
2:53 am 02:53 Clear 10 -12.2 4 -15.6 76 76 SW 9 15 30.19 1023 10 16 0.00 0.00
3:53 am 03:53 Clear 7 -13.9 1 -17.2 76 76 SW 10 17 30.19 1022 10 16 0.00 0.00
4:53 am 04:53 Clear 12 -11.1 5 -15 73 73 SW 13 20 30.20 1023 10 16 0.00 0.00
5:53 am 05:53 Clear 12 -11.1 4 -15.6 70 70 SSW 13 20 30.19 1022 10 16 0.00 0.00
6:53 am 06:53 Clear 13 -10.6 5 -15 70 70 SW 14 22 30.20 1023 10 16 0.00 0.00
7:53 am 07:53 Sunny 13 -10.6 4 -15.6 67 67 SW 15 24 30.18 1022 10 16 0.00 0.00
8:53 am 08:53 Sunny 15 -9.4 6 -14.4 67 67 SW 13 20 30.18 1022 10 16 0.00 0.00
9:53 am 09:53 Sunny 19 -7.2 8 -13.3 62 62 SW 14 22 30.18 1022 10 16 0.00 0.00
10:53 am 10:53 Sunny 20 -6.7 10 -12.2 65 65 WSW 14 22 30.18 1022 10 16 0.00 0.00
11:53 am 11:53 Sunny 23 -5 11 -11.7 60 60 SW 12 19 30.16 1021 10 16 0.00 0.00
12:53 pm 12:53 Sunny 25 -3.9 12 -11.1 58 58 SSW 14 22 30.14 1021 10 16 0.00 0.00
1:53 pm 13:53 Sunny 27 -2.8 13 -10.6 55 55 SW 10 17 30.10 1019 10 16 0.00 0.00
2:53 pm 14:53 Sunny 27 -2.8 15 -9.4 61 61 SW 14 22 30.10 1019 10 16 0.00 0.00
3:53 pm 15:53 Sunny 24 -4.4 14 -10 65 65 SW 13 20 30.11 1020 10 16 0.00 0.00
4:53 pm 16:53 Clear 24 -4.4 12 -11.1 60 60 SW 15 24 30.11 1020 10 16 0.00 0.00
5:53 pm 17:53 Clear 25 -3.9 11 -11.7 55 55 SSW 18 30 30.10 1019 10 16 0.00 0.00
6:53 pm 18:53 Clear 22 -5.6 10 -12.2 60 60 SSW 16 26 30.11 1020 10 16 0.00 0.00
7:53 pm 19:53 Clear 23 -5 11 -11.7 60 60 SW 16 26 30.11 1020 10 16 0.00 0.00
8:53 pm 20:53 Clear 24 -4.4 11 -11.7 57 57 SSW 16 26 30.10 1019 10 16 0.00 0.00
9:53 pm 21:53 Clear 26 -3.3 11 -11.7 53 53 SSW 22 35 30.08 1019 10 16 0.00 0.00
10:53 pm 22:53 Clear 26 -3.3 11 -11.7 53 53 SW 22 35 30.08 1019 10 16 0.00 0.00
11:53 pm 23:53 Clear 26 -3.3 11 -11.7 53 53 SSW 24 39 30.08 1019 10 16 0.00 0.00

Powered by AerisWeather